IZ1REU Genova IT current weather conditions

sailwx.info

Wind from 338 at 9 knots gusting 18

Air temperature 7.2° C
Dewpoint -2.8° C

Last reported at 2020-Jan-21 05:00 UTC.
Time now 2020-Jan-21 06:05 UTC

Location: N 44°24' E 008°58'.
View on Google Maps.

See reports from other nearby stations

  
Tides and Currents Weather Stations Pressure Air Temp Water Temp Dewpoint Dewpoint Depression Visibility Wind Speed Wind Dir Waves Ship Positions
date/time (UTC)wind fromknots sea level pressurealtimeterstation pressurevisibilityair tempwater tempwave heightnotes
2020-Jan-21 05:00 338 9 gusting 18 7.2
2020-Jan-21 04:50 321 11 gusting 18 7.2
2020-Jan-21 04:45 265 12 gusting 17 7.2
2020-Jan-21 04:40 014 11 gusting 18 7.2
2020-Jan-21 04:35 347 4 gusting 17 7.2
2020-Jan-21 04:30 329 8 gusting 19 7.2
2020-Jan-21 04:25 338 13 gusting 18 7.2
2020-Jan-21 04:20 347 13 gusting 19 7.2
2020-Jan-21 04:15 017 6 gusting 19 7.2
2020-Jan-21 04:10 335 4 gusting 19 7.2
2020-Jan-21 04:05 285 6 gusting 21 7.2
2020-Jan-21 04:00 339 9 gusting 18 7.2
2020-Jan-21 03:55 312 7 gusting 13 7.2
2020-Jan-21 03:50 322 7 gusting 18 7.2
2020-Jan-21 03:45 344 10 gusting 15 7.2
2020-Jan-21 03:40 336 9 gusting 11 7.2
2020-Jan-21 03:35 009 8 gusting 14 7.2
2020-Jan-21 03:30 326 14 gusting 17 7.2
2020-Jan-21 03:25 300 11 gusting 14 7.2
2020-Jan-21 03:20 288 8 gusting 16 7.2
2020-Jan-21 03:15 330 13 gusting 17 7.2
2020-Jan-21 03:10 309 7 gusting 16 7.2
2020-Jan-21 03:05 297 3 gusting 15 7.2
2020-Jan-21 03:00 314 6 gusting 16 7.2
2020-Jan-21 02:55 7.2
2020-Jan-21 02:50 355 8 gusting 17 7.2
2020-Jan-21 02:45 013 9 gusting 19 7.2
2020-Jan-21 02:40 257 3 gusting 18 7.2
2020-Jan-21 02:35 291 13 gusting 19 7.2
2020-Jan-21 02:30 323 12 gusting 19 7.2
2020-Jan-21 02:25 319 11 gusting 16 7.2
2020-Jan-21 02:20 342 11 gusting 16 7.2
2020-Jan-21 02:15 043 9 gusting 19 7.2
2020-Jan-21 02:10 335 5 gusting 15 7.2
2020-Jan-21 02:05 301 11 gusting 14 7.2
2020-Jan-21 02:00 327 11 gusting 13 7.2
2020-Jan-21 01:55 336 10 gusting 16 7.2
2020-Jan-21 01:50 340 7 gusting 18 6.7
2020-Jan-21 01:45 340 9 gusting 17 6.7
2020-Jan-21 01:40 355 6 gusting 16 6.7
2020-Jan-21 01:35 304 6 gusting 17 7.2
2020-Jan-21 01:30 348 11 gusting 14 7.2
2020-Jan-21 01:25 296 12 gusting 15 7.2
2020-Jan-21 01:20 298 13 gusting 17 7.2
2020-Jan-21 01:15 341 8 gusting 16 7.2
2020-Jan-21 01:10 338 7 gusting 19 7.2
2020-Jan-21 01:05 355 13 gusting 13 7.2
2020-Jan-21 01:00 327 9 gusting 13 7.2
2020-Jan-21 00:55 311 9 gusting 16 7.2
2020-Jan-21 00:50 327 8 gusting 15 7.2
2020-Jan-21 00:45 005 10 gusting 14 7.2
2020-Jan-21 00:40 338 9 gusting 17 7.2
2020-Jan-21 00:35 351 6 gusting 15 7.2
2020-Jan-21 00:30 005 9 gusting 19 7.2
2020-Jan-21 00:25 322 11 gusting 18 7.2
2020-Jan-21 00:20 323 3 gusting 15 7.2
2020-Jan-21 00:15 339 8 gusting 18 7.2
2020-Jan-21 00:10 287 6 gusting 15 7.2
2020-Jan-21 00:05 321 6 gusting 13 7.2
2020-Jan-21 00:00 281 10 gusting 17 7.2
2020-Jan-20 23:55 316 8 gusting 19 7.2
2020-Jan-20 23:50 355 14 gusting 21 7.2
2020-Jan-20 23:45 350 12 gusting 19 7.2
2020-Jan-20 23:40 338 6 gusting 23 7.2
2020-Jan-20 23:35 333 11 gusting 23 7.2
2020-Jan-20 23:30 311 11 gusting 16 7.2
2020-Jan-20 23:25 297 6 gusting 18 7.2
2020-Jan-20 23:20 308 12 gusting 17 7.8
2020-Jan-20 23:15 355 17 gusting 17 7.8
2020-Jan-20 23:10 351 10 gusting 19 7.8
2020-Jan-20 23:05 298 12 gusting 16 7.8
2020-Jan-20 23:00 281 10 gusting 16 7.8
2020-Jan-20 22:55 351 13 gusting 14 7.8
2020-Jan-20 22:50 005 6 gusting 15 7.8
2020-Jan-20 22:45 005 5 gusting 13 7.8
2020-Jan-20 22:40 323 7 gusting 15 7.8
2020-Jan-20 22:35 313 3 gusting 12 7.8
2020-Jan-20 22:30 328 8 gusting 11 7.8
2020-Jan-20 22:25 300 8 gusting 13 7.8
2020-Jan-20 22:20 350 5 gusting 9 7.8
2020-Jan-20 22:15 331 5 gusting 12 7.8
2020-Jan-20 22:10 350 5 gusting 10 7.8
2020-Jan-20 22:05 355 5 gusting 14 7.8
2020-Jan-20 22:00 346 5 gusting 10 7.8
2020-Jan-20 21:55 281 8 gusting 13 7.8
2020-Jan-20 21:50 275 8 gusting 11 7.8
2020-Jan-20 21:45 333 3 gusting 10 7.8
2020-Jan-20 21:40 346 9 gusting 10 7.8
2020-Jan-20 21:35 261 3 gusting 8 7.8
2020-Jan-20 21:30 304 3 gusting 11 7.8
2020-Jan-20 21:25 347 4 gusting 9 7.8
2020-Jan-20 21:20 321 1 gusting 11 7.8
2020-Jan-20 21:15 316 5 gusting 11 7.8
2020-Jan-20 21:10 312 3 gusting 10 7.8
2020-Jan-20 21:05 038 3 gusting 11 7.8
2020-Jan-20 21:00 327 4 gusting 10 7.8
2020-Jan-20 20:55 292 6 gusting 12 7.8
2020-Jan-20 20:50 291 9 gusting 11 7.8
2020-Jan-20 20:45 302 7 gusting 7 7.8
2020-Jan-20 20:40 350 1 gusting 13 7.8
2020-Jan-20 20:35 319 6 gusting 11 7.8
2020-Jan-20 20:30 012 9 gusting 11 7.8
2020-Jan-20 20:25 320 5 gusting 11 7.8
2020-Jan-20 20:20 350 5 gusting 14 7.8
2020-Jan-20 20:15 296 9 gusting 11 7.8
2020-Jan-20 20:10 304 6 gusting 11 7.8
2020-Jan-20 20:05 306 6 gusting 13 7.8
2020-Jan-20 20:00 315 3 gusting 12 7.8
2020-Jan-20 19:55 304 7 gusting 12 7.8
2020-Jan-20 19:50 304 6 gusting 13 7.8
2020-Jan-20 19:45 261 5 gusting 12 7.8
2020-Jan-20 19:40 306 4 gusting 12 7.8
2020-Jan-20 19:35 313 2 gusting 11 7.8
2020-Jan-20 19:30 336 10 gusting 10 7.8
2020-Jan-20 19:25 336 5 gusting 10 7.8
2020-Jan-20 19:20 355 3 gusting 12 7.8
2020-Jan-20 19:15 355 10 gusting 13 7.8
2020-Jan-20 19:10 329 3 gusting 12 7.8
2020-Jan-20 19:05 335 7 gusting 10 7.8
2020-Jan-20 19:00 355 4 gusting 12 7.8
2020-Jan-20 18:55 327 6 gusting 9 7.8
2020-Jan-20 18:50 329 8 gusting 12 7.8
2020-Jan-20 18:45 355 11 gusting 12 7.8
2020-Jan-20 18:40 005 4 gusting 10 7.8
2020-Jan-20 18:35 303 8 gusting 12 7.8
2020-Jan-20 18:30 281 8 gusting 11 7.8
2020-Jan-20 18:25 306 6 gusting 12 7.8
2020-Jan-20 18:20 308 6 gusting 10 7.8
2020-Jan-20 18:15 351 5 gusting 11 7.8
2020-Jan-20 18:10 310 4 gusting 8 7.8
2020-Jan-20 18:05 335 3 gusting 9 7.8
2020-Jan-20 18:00 320 2 gusting 11 8.3
2020-Jan-20 17:55 296 6 gusting 9 8.3
2020-Jan-20 17:50 313 8 gusting 8 8.3
2020-Jan-20 17:45 290 2 gusting 11 8.3
2020-Jan-20 17:40 337 1 gusting 9 8.3
2020-Jan-20 17:35 284 1 gusting 11 8.3
2020-Jan-20 17:30 343 4 gusting 8 8.3
2020-Jan-20 17:25 301 4 gusting 10 8.3
2020-Jan-20 17:20 296 6 gusting 10 8.9
2020-Jan-20 17:15 321 4 gusting 11 8.9
2020-Jan-20 17:10 284 0 gusting 7 8.9
2020-Jan-20 17:05 280 2 gusting 6 8.9
2020-Jan-20 17:00 322 0 gusting 7 8.9
2020-Jan-20 16:55 315 2 gusting 4 8.9
2020-Jan-20 16:50 300 3 gusting 11 9.4
2020-Jan-20 16:45 337 4 gusting 9 9.4
2020-Jan-20 16:40 015 1 gusting 10 9.4
2020-Jan-20 16:35 036 5 gusting 13 9.4
2020-Jan-20 16:30 028 3 gusting 18 9.4
2020-Jan-20 16:25 311 6 gusting 11 9.4
2020-Jan-20 16:20 046 2 gusting 10 9.4
2020-Jan-20 16:15 011 4 gusting 15 9.4
2020-Jan-20 16:10 313 3 gusting 13 9.4
2020-Jan-20 16:05 350 11 gusting 16 9.4
2020-Jan-20 16:00 10.0
2020-Jan-20 15:55 022 3 gusting 16 10.0
2020-Jan-20 15:50 321 3 gusting 13 10.0
2020-Jan-20 15:45 351 9 gusting 11 10.0
2020-Jan-20 15:40 020 6 gusting 13 10.0
2020-Jan-20 15:35 304 8 gusting 11 10.0
2020-Jan-20 15:30 310 3 gusting 12 10.0
2020-Jan-20 15:25 299 3 gusting 10 10.0
2020-Jan-20 15:20 029 2 gusting 13 10.0
2020-Jan-20 15:15 349 4 gusting 15 10.0
2020-Jan-20 15:10 009 10 gusting 16 10.0
2020-Jan-20 15:05 079 11 gusting 14 10.0
2020-Jan-20 15:00 009 10 gusting 21 10.0
2020-Jan-20 14:55 296 6 gusting 12 10.6
2020-Jan-20 14:50 300 2 gusting 12 10.6
2020-Jan-20 14:45 291 13 gusting 13 10.6
2020-Jan-20 14:40 048 7 gusting 15 10.6
2020-Jan-20 14:35 355 1 gusting 13 10.6
2020-Jan-20 14:30 273 2 gusting 10 10.6
2020-Jan-20 14:25 313 1 gusting 13 10.6
2020-Jan-20 14:20 313 4 gusting 15 10.6
2020-Jan-20 14:15 309 6 gusting 14 10.6
2020-Jan-20 14:10 063 4 gusting 11 11.1
2020-Jan-20 14:05 050 5 gusting 18 11.1
2020-Jan-20 14:00 318 1 gusting 13 11.1
2020-Jan-20 13:55 288 13 gusting 15 11.1
2020-Jan-20 13:50 355 8 gusting 15 11.1
2020-Jan-20 13:45 11.1
2020-Jan-20 13:40 344 5 gusting 13 11.1
2020-Jan-20 13:35 019 13 gusting 20 11.1
2020-Jan-20 13:30 005 5 gusting 11 11.1
2020-Jan-20 13:25 026 4 gusting 15 11.1
2020-Jan-20 13:20 345 12 gusting 13 11.1
2020-Jan-20 13:15 025 8 gusting 13 11.1
2020-Jan-20 13:10 125 7 gusting 14 11.1
2020-Jan-20 13:05 067 2 gusting 15 11.1
2020-Jan-20 13:00 355 6 gusting 14 11.1
2020-Jan-20 12:55 11.1
2020-Jan-20 12:50 317 13 gusting 13 10.6
2020-Jan-20 12:45 339 6 gusting 14 10.6
2020-Jan-20 12:40 355 7 gusting 13 10.6
2020-Jan-20 12:35 079 4 gusting 18 10.6
2020-Jan-20 12:30 315 6 gusting 14 10.6
2020-Jan-20 12:25 285 9 gusting 18 10.6
2020-Jan-20 12:20 10.6
2020-Jan-20 12:15 019 2 gusting 14 10.6
2020-Jan-20 12:10 281 13 gusting 13 10.6
2020-Jan-20 12:05 053 2 gusting 13 10.0
2020-Jan-20 12:00 031 2 gusting 14 10.0
2020-Jan-20 11:55 346 5 gusting 13 10.0
2020-Jan-20 11:50 321 8 gusting 15 10.0
2020-Jan-20 11:45 296 6 gusting 17 10.0
2020-Jan-20 11:40 015 9 gusting 14 10.0
2020-Jan-20 11:35 273 3 gusting 15 10.6
2020-Jan-20 11:30 327 4 gusting 15 10.6
2020-Jan-20 11:25 331 2 gusting 12 10.6
2020-Jan-20 11:20 326 4 gusting 12 10.6
2020-Jan-20 11:15 299 2 gusting 13 10.6
2020-Jan-20 11:10 292 4 gusting 12 10.0
2020-Jan-20 11:05 319 2 gusting 13 10.0
2020-Jan-20 11:00 355 11 gusting 19 10.0
2020-Jan-20 10:55 332 15 gusting 16 10.0
2020-Jan-20 10:50 327 11 gusting 18 10.0
2020-Jan-20 10:45 348 6 gusting 12 10.0
2020-Jan-20 10:40 273 5 gusting 13 10.0
2020-Jan-20 10:35 290 8 gusting 17 10.0
2020-Jan-20 10:30 302 3 gusting 12 10.0
2020-Jan-20 10:25 314 7 gusting 13 10.0
2020-Jan-20 10:20 267 9 gusting 18 9.4
2020-Jan-20 10:15 296 2 gusting 14 9.4
2020-Jan-20 10:10 311 5 gusting 11 9.4
2020-Jan-20 10:05 294 6 gusting 17 9.4
2020-Jan-20 10:00 280 11 gusting 16 9.4
2020-Jan-20 09:55 329 7 gusting 13 9.4
2020-Jan-20 09:50 005 8 gusting 15 9.4
2020-Jan-20 09:45 281 5 gusting 15 8.9
2020-Jan-20 09:40 326 7 gusting 13 8.9
2020-Jan-20 09:35 309 3 gusting 12 8.9
2020-Jan-20 09:30 8.9
2020-Jan-20 09:25 334 3 gusting 13 8.9
2020-Jan-20 09:20 299 3 gusting 13 8.3
2020-Jan-20 09:15 8.3
2020-Jan-20 09:10 296 8 gusting 13 8.3
2020-Jan-20 09:05 040 8 gusting 13 8.3
2020-Jan-20 09:00 310 3 gusting 13 7.8
2020-Jan-20 08:55 348 4 gusting 15 7.8
2020-Jan-20 08:50 351 11 gusting 17 7.8
2020-Jan-20 08:45 286 7 gusting 19 7.8
2020-Jan-20 08:40 292 8 gusting 13 7.8
2020-Jan-20 08:35 340 5 gusting 19 7.8
2020-Jan-20 08:30 284 9 gusting 14 7.8
2020-Jan-20 08:25 355 3 gusting 17 7.8
2020-Jan-20 08:20 348 7 gusting 16 7.8
2020-Jan-20 08:15 343 12 gusting 13 7.8
2020-Jan-20 08:10 005 7 gusting 13 7.8
2020-Jan-20 08:05 355 3 gusting 15 8.3
2020-Jan-20 08:00 8.3
2020-Jan-20 07:55 8.3
2020-Jan-20 07:50 342 5 gusting 17 8.3
2020-Jan-20 07:45 348 9 gusting 19 8.3
2020-Jan-20 07:40 321 13 gusting 13 8.3
2020-Jan-20 07:35 321 7 gusting 19 8.3
2020-Jan-20 07:30 005 7 gusting 17 8.3
2020-Jan-20 07:25 299 7 gusting 11 8.3
2020-Jan-20 07:20 321 11 gusting 17 8.3
2020-Jan-20 07:15 327 19 gusting 19 8.3
2020-Jan-20 07:10 291 6 gusting 20 8.3
2020-Jan-20 07:05 005 2 gusting 25 8.3
2020-Jan-20 07:00 302 7 gusting 13 8.9
2020-Jan-20 06:55 034 9 gusting 14 8.9
2020-Jan-20 06:50 336 3 gusting 15 8.9
2020-Jan-20 06:45 321 13 gusting 15 8.9
2020-Jan-20 06:40 333 4 gusting 14 8.9
2020-Jan-20 06:35 005 13 gusting 13 8.9
2020-Jan-20 06:30 015 9 gusting 9 8.9
2020-Jan-20 06:25 342 3 gusting 14 8.9
2020-Jan-20 06:20 019 6 gusting 15 8.9
2020-Jan-20 06:15 288 6 gusting 15 8.9
2020-Jan-20 06:10 349 7 gusting 15 8.9
2020-Jan-20 06:05 016 3 gusting 14 8.9
2020-Jan-20 06:00 322 5 gusting 11 8.9
2020-Jan-20 05:55 344 4 gusting 16 8.9
2020-Jan-20 05:50 355 5 gusting 25 8.9
2020-Jan-20 05:45 018 9 gusting 25 8.9
2020-Jan-20 05:40 344 11 gusting 16 8.9
2020-Jan-20 05:35 321 3 gusting 14 8.9
2020-Jan-20 05:30 290 12 gusting 17 8.9
2020-Jan-20 05:25 329 5 gusting 13 8.9
2020-Jan-20 05:20 8.9
2020-Jan-20 05:15 342 12 gusting 14 8.9
2020-Jan-20 05:10 297 4 gusting 13 8.9
2020-Jan-20 05:05 314 5 gusting 15 8.3
2020-Jan-20 05:00 339 8 gusting 14 8.3
2020-Jan-20 04:55 355 5 gusting 15 8.3
2020-Jan-20 04:50 350 7 gusting 14 8.3
2020-Jan-20 04:45 328 9 gusting 12 8.3
2020-Jan-20 04:40 344 5 gusting 13 8.3
2020-Jan-20 04:35 294 4 gusting 13 8.3
2020-Jan-20 04:30 344 2 gusting 15 8.3
2020-Jan-20 04:25 349 2 gusting 13 8.3
2020-Jan-20 04:20 323 8 gusting 10 8.3
2020-Jan-20 04:15 331 7 gusting 13 8.3
2020-Jan-20 04:10 321 6 gusting 12 8.3
2020-Jan-20 04:05 331 7 gusting 12 8.3
2020-Jan-20 04:00 287 6 gusting 13 8.3
2020-Jan-20 03:55 8.3
2020-Jan-20 03:50 028 5 gusting 16 8.3
2020-Jan-20 03:45 303 6 gusting 14 8.3
2020-Jan-20 03:40 329 2 gusting 13 8.3
2020-Jan-20 03:35 005 5 gusting 16 8.3
2020-Jan-20 03:30 294 13 gusting 13 8.3
2020-Jan-20 03:25 279 1 gusting 18 8.9
2020-Jan-20 03:20 031 3 gusting 18 8.9
2020-Jan-20 03:15 333 9 gusting 18 8.9
2020-Jan-20 03:10 296 4 gusting 13 8.9
2020-Jan-20 03:05 355 8 gusting 14 8.9
2020-Jan-20 03:00 299 13 gusting 19 8.9
2020-Jan-20 02:55 292 8 gusting 14 8.3
2020-Jan-20 02:50 013 7 gusting 16 8.3
2020-Jan-20 02:45 355 15 gusting 16 8.3
2020-Jan-20 02:40 316 10 gusting 16 8.9
2020-Jan-20 02:35 337 10 gusting 17 8.9
2020-Jan-20 02:30 8.9
2020-Jan-20 02:25 319 9 gusting 20 8.9
2020-Jan-20 02:20 328 7 gusting 16 8.3
2020-Jan-20 02:15 334 10 gusting 19 8.3
2020-Jan-20 02:10 305 12 gusting 16 8.3
2020-Jan-20 02:05 333 9 gusting 17 8.3
2020-Jan-20 02:00 336 9 gusting 18 8.3
2020-Jan-20 01:55 306 13 gusting 19 8.9
2020-Jan-20 01:50 331 10 gusting 16 8.3
2020-Jan-20 01:45 311 7 gusting 13 8.3
2020-Jan-20 01:40 355 3 gusting 17 8.3
2020-Jan-20 01:35 323 10 gusting 16 8.3
2020-Jan-20 01:30 351 12 gusting 17 8.3
2020-Jan-20 01:25 345 12 gusting 15 8.3
2020-Jan-20 01:20 337 8 gusting 17 8.3
2020-Jan-20 01:15 317 8 gusting 14 8.3
2020-Jan-20 01:10 005 7 gusting 16 8.3
2020-Jan-20 01:05 8.3
2020-Jan-20 01:00 336 12 gusting 15 8.3
2020-Jan-20 00:55 311 4 gusting 16 8.3
2020-Jan-20 00:50 293 6 gusting 18 8.3
2020-Jan-20 00:45 313 13 gusting 18 8.3
2020-Jan-20 00:40 331 4 gusting 19 8.3
2020-Jan-20 00:35 269 10 gusting 18 8.3
2020-Jan-20 00:30 297 9 gusting 16 8.3
2020-Jan-20 00:25 345 13 gusting 19 8.3
2020-Jan-20 00:20 313 10 gusting 18 8.3
2020-Jan-20 00:15 346 9 gusting 18 8.3
2020-Jan-20 00:10 318 6 gusting 19 8.3
2020-Jan-20 00:05 340 8 gusting 17 8.3
2020-Jan-20 00:00 271 10 gusting 17 8.3
2020-Jan-19 23:55 026 11 gusting 15 8.3
2020-Jan-19 23:50 355 5 gusting 16 8.3
2020-Jan-19 23:45 317 9 gusting 16 8.3
2020-Jan-19 23:40 346 4 gusting 16 8.3
2020-Jan-19 23:35 325 7 gusting 20 8.3
2020-Jan-19 23:30 355 14 gusting 17 8.3
2020-Jan-19 23:25 313 13 gusting 16 7.8
2020-Jan-19 23:20 044 11 gusting 19 7.8
2020-Jan-19 23:15 303 11 gusting 18 7.8
2020-Jan-19 23:10 292 6 gusting 20 7.8
2020-Jan-19 23:05 288 14 gusting 19 7.8
2020-Jan-19 23:00 005 10 gusting 18 7.8
2020-Jan-19 22:55 341 12 gusting 19 7.8
2020-Jan-19 22:50 305 9 gusting 20 7.8
2020-Jan-19 22:45 347 11 gusting 16 7.8
2020-Jan-19 22:40 300 7 gusting 20 7.8
2020-Jan-19 22:35 310 8 gusting 18 7.8
2020-Jan-19 22:30 355 13 gusting 19 7.8
2020-Jan-19 22:25 316 8 gusting 17 7.8
2020-Jan-19 22:20 273 15 gusting 19 7.2
2020-Jan-19 22:15 339 15 gusting 19 7.2
2020-Jan-19 22:10 348 5 gusting 20 7.8
2020-Jan-19 22:05 344 17 gusting 19 7.2
2020-Jan-19 22:00 019 13 gusting 17 7.2
2020-Jan-19 21:55 340 7 gusting 19 7.8
2020-Jan-19 21:50 311 8 gusting 19 7.8
2020-Jan-19 21:45 323 8 gusting 18 7.8
2020-Jan-19 21:40 331 18 gusting 20 7.8
2020-Jan-19 21:35 032 9 gusting 15 7.2
2020-Jan-19 21:30 286 14 gusting 17 7.8
2020-Jan-19 21:25 267 6 gusting 15 7.8
2020-Jan-19 21:20 340 5 gusting 14 7.8
2020-Jan-19 21:15 011 7 gusting 15 7.8
2020-Jan-19 21:10 355 5 gusting 14 7.8
2020-Jan-19 21:05 351 5 gusting 13 7.8
2020-Jan-19 21:00 028 8 gusting 15 7.8
2020-Jan-19 20:55 347 7 gusting 14 7.2
2020-Jan-19 20:50 350 10 gusting 13 7.2
2020-Jan-19 20:45 336 7 gusting 15 7.8
2020-Jan-19 20:40 323 6 gusting 16 7.2
2020-Jan-19 20:35 348 8 gusting 19 7.2
2020-Jan-19 20:30 290 8 gusting 17 7.2
2020-Jan-19 20:25 341 8 gusting 17 7.2
2020-Jan-19 20:20 331 14 gusting 17 7.2
2020-Jan-19 20:15 338 2 gusting 18 7.2
2020-Jan-19 20:10 329 7 gusting 19 7.2
2020-Jan-19 20:05 336 12 gusting 20 7.8
2020-Jan-19 20:00 355 5 gusting 18 7.8
2020-Jan-19 19:55 326 11 gusting 15 7.8
2020-Jan-19 19:50 342 9 gusting 16 7.8
2020-Jan-19 19:45 341 10 gusting 14 7.8
2020-Jan-19 19:40 346 13 gusting 15 7.8
2020-Jan-19 19:35 306 15 gusting 15 7.8
2020-Jan-19 19:30 309 6 gusting 17 7.8
2020-Jan-19 19:25 304 11 gusting 16 7.8
2020-Jan-19 19:20 319 11 gusting 13 8.3
2020-Jan-19 19:15 325 13 gusting 15 8.3
2020-Jan-19 19:10 308 8 gusting 15 8.3
2020-Jan-19 19:05 310 6 gusting 12 8.3
2020-Jan-19 19:00 348 2 gusting 12 8.3
2020-Jan-19 18:55 329 3 gusting 9 8.9
2020-Jan-19 18:50 355 5 gusting 10 8.3
2020-Jan-19 18:45 317 7 gusting 8 8.3
2020-Jan-19 18:40 317 0 gusting 12 8.3
2020-Jan-19 18:35 8.3
2020-Jan-19 18:30 299 6 gusting 9 8.3
2020-Jan-19 18:25 333 1 gusting 12 8.3
2020-Jan-19 18:20 311 0 gusting 8 8.3
2020-Jan-19 18:15 295 4 gusting 8 8.3
2020-Jan-19 18:10 330 1 gusting 13 8.9
2020-Jan-19 18:05 290 4 gusting 6 8.9
2020-Jan-19 18:00 300 2 gusting 7 8.9
2020-Jan-19 17:55 341 3 gusting 6 8.9
2020-Jan-19 17:50 286 3 gusting 8 8.9
2020-Jan-19 17:45 295 1 gusting 6 8.3
2020-Jan-19 17:40 347 2 gusting 6 8.9
2020-Jan-19 17:35 300 2 gusting 7 8.9
2020-Jan-19 17:30 321 3 gusting 10 8.9
2020-Jan-19 17:25 073 7 gusting 12 8.9
2020-Jan-19 17:20 319 11 gusting 17 8.9
2020-Jan-19 17:15 288 9 gusting 12 8.3
2020-Jan-19 17:10 305 6 gusting 14 8.3
2020-Jan-19 17:05 293 1 gusting 13 8.9
2020-Jan-19 17:00 349 11 gusting 14 8.9
2020-Jan-19 16:55 351 6 gusting 14 8.9
2020-Jan-19 16:50 323 11 gusting 13 8.9
2020-Jan-19 16:45 306 8 gusting 14 8.9
2020-Jan-19 16:40 327 5 gusting 14 8.9
2020-Jan-19 16:35 284 12 gusting 13 8.9
2020-Jan-19 16:30 331 8 gusting 16 8.9
2020-Jan-19 16:25 355 6 gusting 17 8.9
2020-Jan-19 16:20 346 7 gusting 13 8.9
2020-Jan-19 16:15 315 6 gusting 14 8.9
2020-Jan-19 16:10 292 4 gusting 15 8.9
2020-Jan-19 16:05 050 11 gusting 13 8.3
2020-Jan-19 16:00 293 6 gusting 14 8.3
2020-Jan-19 15:55 005 13 gusting 13 8.3
2020-Jan-19 15:50 355 3 gusting 16 8.3
2020-Jan-19 15:45 019 6 gusting 14 8.3
2020-Jan-19 15:40 317 3 gusting 18 8.3
2020-Jan-19 15:35 349 8 gusting 16 8.3
2020-Jan-19 15:30 355 9 gusting 14 8.3
2020-Jan-19 15:25 320 13 gusting 15 8.3
2020-Jan-19 15:20 327 6 gusting 18 8.3
2020-Jan-19 15:15 297 13 gusting 16 8.3
2020-Jan-19 15:10 355 11 gusting 17 8.3
2020-Jan-19 15:05 033 9 gusting 18 8.3
2020-Jan-19 15:00 344 18 gusting 19 8.3
2020-Jan-19 14:55 330 13 gusting 15 8.3
2020-Jan-19 14:50 318 4 gusting 19 8.3
2020-Jan-19 14:45 349 13 gusting 13 8.9
2020-Jan-19 14:40 344 4 gusting 18 8.9
2020-Jan-19 14:35 355 6 gusting 20 8.9
2020-Jan-19 14:30 333 17 gusting 25 8.9
2020-Jan-19 14:25 027 9 gusting 20 8.9
2020-Jan-19 14:20 294 11 gusting 19 8.9
2020-Jan-19 14:15 323 6 gusting 22 8.9
2020-Jan-19 14:10 300 6 gusting 17 8.9
2020-Jan-19 14:05 355 6 gusting 19 8.9
2020-Jan-19 14:00 326 13 gusting 18 8.9
2020-Jan-19 13:55 005 11 gusting 20 8.9
2020-Jan-19 13:50 325 7 gusting 19 8.9
2020-Jan-19 13:45 011 11 gusting 19 8.9
2020-Jan-19 13:40 277 8 gusting 25 8.9
2020-Jan-19 13:35 351 17 gusting 21 8.9
2020-Jan-19 13:30 321 17 gusting 17 8.9
2020-Jan-19 13:25 330 17 gusting 18 8.9
2020-Jan-19 13:20 355 4 gusting 17 8.9
2020-Jan-19 13:15 302 13 gusting 19 8.9
2020-Jan-19 13:10 331 15 gusting 23 8.9
2020-Jan-19 13:05 351 6 gusting 18 8.9
2020-Jan-19 13:00 306 6 gusting 18 8.9
2020-Jan-19 12:55 309 6 gusting 20 8.9
2020-Jan-19 12:50 314 7 gusting 20 8.9
2020-Jan-19 12:45 340 10 gusting 21 8.9
2020-Jan-19 12:40 321 11 gusting 18 8.9
2020-Jan-19 12:35 349 8 gusting 21 8.9
2020-Jan-19 12:30 355 10 gusting 18 8.9
2020-Jan-19 12:25 297 9 gusting 23 8.9
2020-Jan-19 12:20 013 13 gusting 21 8.9
2020-Jan-19 12:15 313 13 gusting 22 8.9
2020-Jan-19 12:10 336 6 gusting 23 8.9
2020-Jan-19 12:05 316 13 gusting 21 8.9
2020-Jan-19 12:00 329 15 gusting 18 8.9
2020-Jan-19 11:55 033 10 gusting 17 8.9
2020-Jan-19 11:50 8.9
2020-Jan-19 11:45 343 13 gusting 16 8.9
2020-Jan-19 11:40 342 11 gusting 16 8.9
2020-Jan-19 11:35 305 10 gusting 19 8.9
2020-Jan-19 11:30 327 6 gusting 20 8.9
2020-Jan-19 11:25 296 11 gusting 15 8.9
2020-Jan-19 11:20 005 15 gusting 16 8.9
2020-Jan-19 11:15 014 7 gusting 19 8.9
2020-Jan-19 11:10 328 4 gusting 19 8.9
2020-Jan-19 11:05 327 16 gusting 20 8.9
2020-Jan-19 11:00 303 12 gusting 20 8.9
2020-Jan-19 10:55 343 17 gusting 21 8.9
2020-Jan-19 10:50 011 7 gusting 19 8.9
2020-Jan-19 10:45 333 6 gusting 18 8.9
2020-Jan-19 10:40 319 7 gusting 20 8.9
2020-Jan-19 10:35 311 10 gusting 19 8.9
2020-Jan-19 10:30 342 10 gusting 16 8.9
2020-Jan-19 10:25 305 6 gusting 20 8.9
2020-Jan-19 10:20 331 8 gusting 22 8.3
2020-Jan-19 10:15 336 11 gusting 22 8.3
2020-Jan-19 10:10 340 15 gusting 16 8.3
2020-Jan-19 10:05 336 11 gusting 15 8.3
2020-Jan-19 10:00 327 9 gusting 17 8.3
2020-Jan-19 09:55 327 4 gusting 14 8.3
2020-Jan-19 09:50 296 7 gusting 13 8.3
2020-Jan-19 09:45 013 13 gusting 19 8.3
2020-Jan-19 09:40 338 12 gusting 15 8.3
2020-Jan-19 09:35 306 6 gusting 16 8.3
2020-Jan-19 09:30 321 8 gusting 15 8.3
2020-Jan-19 09:25 345 4 gusting 16 8.3
2020-Jan-19 09:20 331 6 gusting 14 8.3
2020-Jan-19 09:15 339 8 gusting 16 8.3
2020-Jan-19 09:10 324 10 gusting 13 8.3
2020-Jan-19 09:05 299 6 gusting 15 8.3
2020-Jan-19 09:00 333 6 gusting 14 8.3
2020-Jan-19 08:55 009 3 gusting 14 7.8
2020-Jan-19 08:50 305 8 gusting 12 7.8
2020-Jan-19 08:45 348 4 gusting 12 7.8
2020-Jan-19 08:40 325 3 gusting 13 7.8
2020-Jan-19 08:35 347 6 gusting 13 7.8
2020-Jan-19 08:30 355 6 gusting 11 7.8
2020-Jan-19 08:25 333 7 gusting 9 7.2
2020-Jan-19 08:20 336 6 gusting 13 7.2
2020-Jan-19 08:15 297 6 gusting 11 7.2
2020-Jan-19 08:10 346 4 gusting 13 7.2
2020-Jan-19 08:05 348 12 gusting 16 7.2
2020-Jan-19 08:00 314 6 gusting 16 7.2
2020-Jan-19 07:55 7.2
2020-Jan-19 07:50 338 8 gusting 11 7.2
2020-Jan-19 07:45 285 7 gusting 12 7.2
2020-Jan-19 07:40 342 6 gusting 10 7.2
2020-Jan-19 07:35 329 2 gusting 13 7.2
2020-Jan-19 07:30 011 2 gusting 12 7.2
2020-Jan-19 07:25 313 3 gusting 13 7.2
2020-Jan-19 07:20 336 3 gusting 11 7.2
2020-Jan-19 07:15 347 7 gusting 10 7.2
2020-Jan-19 07:10 339 7 gusting 11 7.2
2020-Jan-19 07:05 336 7 gusting 9 7.2
2020-Jan-19 07:00 024 5 gusting 12 7.2
2020-Jan-19 06:55 323 7 gusting 11 7.2
2020-Jan-19 06:50 333 6 gusting 12 7.2
2020-Jan-19 06:45 308 7 gusting 12 7.2
2020-Jan-19 06:40 343 4 gusting 13 7.2
2020-Jan-19 06:35 332 3 gusting 11 7.2
2020-Jan-19 06:30 309 3 gusting 11 7.2
2020-Jan-19 06:25 315 3 gusting 11 7.2
2020-Jan-19 06:20 348 5 gusting 12 7.2
2020-Jan-19 06:15 321 9 gusting 11 7.2
2020-Jan-19 06:10 011 6 gusting 11 7.2
2020-Jan-19 06:05 341 7 gusting 12 7.2
2020-Jan-19 06:00 312 4 gusting 9 7.2